2020-11-07T00:02:23Z,166.148.81.45,# 17.5125,  4.35443,    2.731, 0.1834, 0.0000, 0.0003, 0.0001,  33.3934, 07 Nov 2020 00:02:17,  24.1598, 13.8, 187.5
2020-11-07T00:06:23Z,166.148.81.45,# 17.5129,  4.35443,    2.851, 0.1760, 0.0000, 0.0002, 0.0001,  33.3929, 07 Nov 2020 00:06:17,  24.1593, 13.8, 186.8
2020-11-07T00:10:23Z,166.148.81.45,# 17.5120,  4.35443,    2.681, 0.1790, 0.0000, 0.0003, 0.0001,  33.3938, 07 Nov 2020 00:10:17,  24.1603, 13.8, 185.9
2020-11-07T00:14:23Z,166.148.81.45,# 17.5253,  4.35568,    2.742, 0.1735, 0.0000, 0.0003, 0.0001,  33.3935, 07 Nov 2020 00:14:17,  24.1569, 13.8, 187.9
2020-11-07T00:18:23Z,166.148.81.45,# 17.5325,  4.35641,    2.769, 0.1828, 0.0000, 0.0003, 0.0002,  33.3939, 07 Nov 2020 00:18:17,  24.1554, 13.8, 181.5
2020-11-07T00:22:23Z,166.148.81.45,# 17.5368,  4.35677,    2.704, 0.1777, 0.0000, 0.0004, 0.0001,  33.3934, 07 Nov 2020 00:22:17,  24.1539, 13.8, 183.1
2020-11-07T00:26:23Z,166.148.81.45,# 17.5310,  4.35625,    2.678, 0.1686, 0.0000, 0.0004, 0.0001,  33.3937, 07 Nov 2020 00:26:17,  24.1556, 13.8, 180.6
2020-11-07T00:30:23Z,166.148.81.45,# 17.5359,  4.35676,    2.621, 0.1778, 0.0000, 0.0003, 0.0001,  33.3941, 07 Nov 2020 00:30:17,  24.1548, 13.8, 182.7
2020-11-07T00:34:23Z,166.148.81.45,# 17.5331,  4.35650,    2.725, 0.1749, 0.0000, 0.0004, 0.0001,  33.3941, 07 Nov 2020 00:34:17,  24.1554, 13.8, 182.0
2020-11-07T00:38:23Z,166.148.81.45,# 17.5317,  4.35636,    2.613, 0.1693, 0.0000, 0.0004, 0.0001,  33.3940, 07 Nov 2020 00:38:17,  24.1556, 13.8, 181.8
2020-11-07T00:42:23Z,166.148.81.45,# 17.5275,  4.35605,    2.585, 0.1860, 0.0000, 0.0003, 0.0001,  33.3949, 07 Nov 2020 00:42:17,  24.1573, 13.8, 185.0
2020-11-07T00:46:23Z,166.148.81.45,# 17.5284,  4.35609,    2.541, 0.1823, 0.0000, 0.0003, 0.0000,  33.3946, 07 Nov 2020 00:46:17,  24.1569, 13.8, 181.8
2020-11-07T00:50:23Z,166.148.81.45,# 17.5213,  4.35547,    2.604, 0.1777, 0.0000, 0.0004, 0.0001,  33.3950, 07 Nov 2020 00:50:17,  24.1589, 13.8, 184.2
2020-11-07T00:54:23Z,166.148.81.45,# 17.5145,  4.35483,    2.664, 0.1760, 0.0000, 0.0003, 0.0001,  33.3951, 07 Nov 2020 00:54:17,  24.1606, 13.8, 183.7
2020-11-07T00:58:23Z,166.148.81.45,# 17.5105,  4.35446,    2.570, 0.1783, 0.0000, 0.0003, 0.0001,  33.3953, 07 Nov 2020 00:58:17,  24.1617, 13.8, 181.3
2020-11-07T01:02:23Z,166.148.81.45,# 17.5097,  4.35435,    2.464, 0.1775, 0.0000, 0.0004, 0.0001,  33.3950, 07 Nov 2020 01:02:17,  24.1617, 13.8, 184.1
2020-11-07T01:06:23Z,166.148.81.45,# 17.5059,  4.35405,    2.655, 0.1774, 0.0000, 0.0004, 0.0001,  33.3956, 07 Nov 2020 01:06:17,  24.1631, 13.8, 184.4
2020-11-07T01:10:23Z,166.148.81.45,# 17.5013,  4.35363,    2.613, 0.1743, 0.0000, 0.0003, 0.0001,  33.3958, 07 Nov 2020 01:10:17,  24.1643, 13.8, 186.3
2020-11-07T01:14:23Z,166.148.81.45,# 17.4767,  4.35130,    2.457, 0.1833, 0.0000, 0.0002, 0.0001,  33.3961, 07 Nov 2020 01:14:17,  24.1705, 13.8, 183.5
2020-11-07T01:18:23Z,166.148.81.45,# 17.4743,  4.35111,    2.565, 0.1803, 0.0000, 0.0004, 0.0002,  33.3964, 07 Nov 2020 01:18:17,  24.1713, 13.8, 187.3
2020-11-07T01:22:23Z,166.148.81.45,# 17.4630,  4.35010,    2.494, 0.1853, 0.0000, 0.0003, 0.0001,  33.3970, 07 Nov 2020 01:22:17,  24.1744, 13.8, 185.6
2020-11-07T01:26:23Z,166.148.81.45,# 17.4439,  4.34829,    2.416, 0.1982, 0.0000, 0.0003, 0.0001,  33.3972, 07 Nov 2020 01:26:17,  24.1792, 13.8, 184.6
2020-11-07T01:30:23Z,166.148.81.45,# 17.4540,  4.34923,    2.388, 0.1888, 0.0000, 0.0004, 0.0002,  33.3970, 07 Nov 2020 01:30:17,  24.1765, 13.8, 183.1
2020-11-07T01:34:23Z,166.148.81.45,# 17.4269,  4.34669,    2.424, 0.1908, 0.0000, 0.0003, 0.0001,  33.3975, 07 Nov 2020 01:34:17,  24.1835, 13.8, 185.0
2020-11-07T01:38:23Z,166.148.81.45,# 17.4032,  4.34426,    2.342, 0.1889, 0.0000, 0.0005, 0.0001,  33.3962, 07 Nov 2020 01:38:17,  24.1881, 13.8, 181.6
2020-11-07T01:42:23Z,166.148.81.45,# 17.3971,  4.34368,    2.372, 0.1843, 0.0000, 0.0003, 0.0001,  33.3963, 07 Nov 2020 01:42:17,  24.1896, 13.8, 183.9
2020-11-07T01:46:23Z,166.148.81.45,# 17.3919,  4.34313,    2.336, 0.1829, 0.0000, 0.0003, 0.0001,  33.3959, 07 Nov 2020 01:46:17,  24.1906, 13.8, 190.4
2020-11-07T01:50:23Z,166.148.81.45,# 17.3855,  4.34260,    2.323, 0.1836, 0.0000, 0.0003, 0.0001,  33.3966, 07 Nov 2020 01:50:17,  24.1926, 13.8, 182.5
2020-11-07T01:54:23Z,166.148.81.45,# 17.3742,  4.34151,    2.294, 0.1828, 0.0000, 0.0003, 0.0001,  33.3965, 07 Nov 2020 01:54:17,  24.1953, 13.8, 184.0
2020-11-07T01:58:23Z,166.148.81.45,# 17.3704,  4.34115,    2.306, 0.1860, 0.0000, 0.0003, 0.0001,  33.3966, 07 Nov 2020 01:58:17,  24.1962, 13.8, 187.7
2020-11-07T02:02:23Z,166.148.81.45,# 17.3721,  4.34130,    2.221, 0.1839, 0.0000, 0.0004, 0.0001,  33.3965, 07 Nov 2020 02:02:17,  24.1958, 13.8, 188.4
2020-11-07T02:06:23Z,166.148.81.45,# 17.3707,  4.34120,    2.266, 0.1802, 0.0000, 0.0004, 0.0001,  33.3968, 07 Nov 2020 02:06:17,  24.1963, 13.8, 186.3
2020-11-07T02:10:23Z,166.148.81.45,# 17.3722,  4.34127,    2.296, 0.1829, 0.0000, 0.0003, 0.0001,  33.3962, 07 Nov 2020 02:10:17,  24.1954, 13.8, 183.6
2020-11-07T02:14:23Z,166.148.81.45,# 17.3701,  4.34101,    2.355, 0.1904, 0.0000, 0.0003, 0.0001,  33.3956, 07 Nov 2020 02:14:17,  24.1956, 13.8, 186.4
2020-11-07T02:18:23Z,166.148.81.45,# 17.3442,  4.33871,    2.223, 0.1953, 0.0000, 0.0003, 0.0001,  33.3972, 07 Nov 2020 02:18:17,  24.2030, 13.8, 184.9
2020-11-07T02:22:23Z,166.148.81.45,# 17.3490,  4.33915,    2.254, 0.1941, 0.0000, 0.0003, 0.0001,  33.3971, 07 Nov 2020 02:22:17,  24.2017, 13.8, 185.9
2020-11-07T02:26:23Z,166.148.81.45,# 17.3339,  4.33778,    2.225, 0.1869, 0.0000, 0.0004, 0.0001,  33.3978, 07 Nov 2020 02:26:17,  24.2058, 13.8, 185.4
2020-11-07T02:30:23Z,166.148.81.45,# 17.3001,  4.33460,    2.114, 0.1909, 0.0000, 0.0003, 0.0001,  33.3984, 07 Nov 2020 02:30:17,  24.2144, 13.8, 182.8
2020-11-07T02:34:24Z,166.148.81.45,# 17.2907,  4.33373,    2.147, 0.1898, 0.0000, 0.0004, 0.0001,  33.3986, 07 Nov 2020 02:34:17,  24.2167, 13.8, 183.7
2020-11-07T02:38:23Z,166.148.81.45,# 17.2935,  4.33396,    2.193, 0.1874, 0.0000, 0.0003, 0.0001,  33.3982, 07 Nov 2020 02:38:17,  24.2158, 13.8, 185.3
2020-11-07T02:42:23Z,166.148.81.45,# 17.2835,  4.33302,    2.256, 0.1831, 0.0000, 0.0003, 0.0000,  33.3983, 07 Nov 2020 02:42:17,  24.2183, 13.8, 186.3
2020-11-07T02:46:23Z,166.148.81.45,# 17.2864,  4.33322,    2.208, 0.1849, 0.0000, 0.0003, 0.0001,  33.3978, 07 Nov 2020 02:46:17,  24.2172, 13.8, 187.5
2020-11-07T02:50:23Z,166.148.81.45,# 17.2815,  4.33271,    2.232, 0.1833, 0.0000, 0.0003, 0.0001,  33.3974, 07 Nov 2020 02:50:17,  24.2180, 13.8, 187.7
2020-11-07T02:54:23Z,166.148.81.45,# 17.2765,  4.33239,    2.233, 0.1773, 0.0000, 0.0003, 0.0001,  33.3987, 07 Nov 2020 02:54:17,  24.2202, 13.8, 183.9
2020-11-07T02:58:23Z,166.148.81.45,# 17.2673,  4.33138,    2.196, 0.1852, 0.0000, 0.0003, 0.0000,  33.3976, 07 Nov 2020 02:58:17,  24.2216, 13.8, 184.3
2020-11-07T03:02:23Z,166.148.81.45,# 17.2584,  4.33058,    2.123, 0.1904, 0.0000, 0.0003, 0.0001,  33.3981, 07 Nov 2020 03:02:17,  24.2240, 13.8, 185.0
2020-11-07T03:06:23Z,166.148.81.45,# 17.2672,  4.33141,    2.101, 0.1830, 0.0000, 0.0003, 0.0001,  33.3980, 07 Nov 2020 03:06:17,  24.2219, 13.8, 185.7
2020-11-07T03:10:23Z,166.148.81.45,# 17.2550,  4.33029,    2.172, 0.1804, 0.0000, 0.0003, 0.0001,  33.3984, 07 Nov 2020 03:10:17,  24.2251, 13.8, 186.5
2020-11-07T03:14:23Z,166.148.81.45,# 17.2519,  4.33002,    2.122, 0.1897, 0.0000, 0.0004, 0.0001,  33.3987, 07 Nov 2020 03:14:17,  24.2260, 13.8, 186.1
2020-11-07T03:18:23Z,166.148.81.45,# 17.2513,  4.32992,    2.051, 0.1831, 0.0000, 0.0004, 0.0001,  33.3984, 07 Nov 2020 03:18:17,  24.2260, 13.8, 183.2
2020-11-07T03:22:24Z,166.148.81.45,# 17.2503,  4.32981,    2.129, 0.1796, 0.0000, 0.0004, 0.0000,  33.3981, 07 Nov 2020 03:22:17,  24.2260, 13.8, 183.4
2020-11-07T03:26:23Z,166.148.81.45,# 17.2323,  4.32817,    2.070, 0.1815, 0.0000, 0.0003, 0.0001,  33.3989, 07 Nov 2020 03:26:17,  24.2308, 13.8, 186.0
2020-11-07T03:30:23Z,166.148.81.45,# 17.2182,  4.32678,    2.175, 0.1836, 0.0000, 0.0002, 0.0001,  33.3986, 07 Nov 2020 03:30:17,  24.2339, 13.8, 189.5
2020-11-07T03:34:23Z,166.148.81.45,# 17.2154,  4.32648,    2.069, 0.1821, 0.0000, 0.0003, 0.0001,  33.3983, 07 Nov 2020 03:34:17,  24.2344, 13.8, 183.8
2020-11-07T03:38:23Z,166.148.81.45,# 17.1986,  4.32497,    2.075, 0.1865, 0.0000, 0.0003, 0.0002,  33.3992, 07 Nov 2020 03:38:17,  24.2390, 13.8, 186.4
2020-11-07T03:42:23Z,166.148.81.45,# 17.2000,  4.32512,    2.064, 0.1854, 0.0000, 0.0002, 0.0001,  33.3993, 07 Nov 2020 03:42:17,  24.2388, 13.8, 183.2
2020-11-07T03:46:23Z,166.148.81.45,# 17.1810,  4.32336,    1.969, 0.1819, 0.0000, 0.0003, 0.0000,  33.3999, 07 Nov 2020 03:46:17,  24.2438, 13.8, 184.4
2020-11-07T03:50:23Z,166.148.81.45,# 17.1738,  4.32272,    2.121, 0.1814, 0.0000, 0.0003, 0.0001,  33.4003, 07 Nov 2020 03:50:17,  24.2457, 13.8, 186.3
2020-11-07T03:54:23Z,166.148.81.45,# 17.1750,  4.32278,    2.027, 0.1807, 0.0000, 0.0003, 0.0001,  33.3999, 07 Nov 2020 03:54:17,  24.2451, 13.8, 182.7
2020-11-07T03:58:23Z,166.148.81.45,# 17.1664,  4.32196,    2.013, 0.1787, 0.0000, 0.0003, 0.0000,  33.3999, 07 Nov 2020 03:58:17,  24.2472, 13.8, 181.9
2020-11-07T04:02:23Z,166.148.81.45,# 17.1649,  4.32190,    1.964, 0.1786, 0.0000, 0.0002, 0.0001,  33.4006, 07 Nov 2020 04:02:17,  24.2480, 13.8, 184.0
2020-11-07T04:06:23Z,166.148.81.45,# 17.1577,  4.32120,    2.092, 0.1826, 0.0000, 0.0004, 0.0001,  33.4005, 07 Nov 2020 04:06:17,  24.2498, 13.8, 182.3
2020-11-07T04:10:23Z,166.148.81.45,# 17.1448,  4.31998,    2.029, 0.1832, 0.0000, 0.0002, 0.0001,  33.4007, 07 Nov 2020 04:10:17,  24.2529, 13.8, 183.8
2020-11-07T04:14:23Z,166.148.81.45,# 17.1518,  4.32064,    2.176, 0.1783, 0.0000, 0.0003, 0.0000,  33.4005, 07 Nov 2020 04:14:17,  24.2511, 13.8, 185.9
2020-11-07T04:18:23Z,166.148.81.45,# 17.1345,  4.31912,    2.033, 0.1804, 0.0000, 0.0003, 0.0001,  33.4018, 07 Nov 2020 04:18:17,  24.2562, 13.8, 187.0
2020-11-07T04:22:23Z,166.148.81.45,# 17.1314,  4.31876,    1.909, 0.1835, 0.0000, 0.0003, 0.0000,  33.4013, 07 Nov 2020 04:22:17,  24.2566, 13.8, 181.0
2020-11-07T04:26:23Z,166.148.81.45,# 17.1157,  4.31748,    2.043, 0.1869, 0.0000, 0.0002, 0.0001,  33.4032, 07 Nov 2020 04:26:17,  24.2617, 13.8, 182.4
2020-11-07T04:30:23Z,166.148.81.45,# 17.1123,  4.31700,    1.994, 0.1851, 0.0000, 0.0003, 0.0000,  33.4019, 07 Nov 2020 04:30:17,  24.2615, 13.8, 188.3
2020-11-07T04:34:23Z,166.148.81.45,# 17.0962,  4.31556,    2.045, 0.1812, 0.0000, 0.0003, 0.0000,  33.4027, 07 Nov 2020 04:34:17,  24.2660, 13.8, 182.2
2020-11-07T04:38:23Z,166.148.81.45,# 17.0988,  4.31586,    2.042, 0.1779, 0.0000, 0.0003, 0.0001,  33.4032, 07 Nov 2020 04:38:17,  24.2657, 13.8, 187.4
2020-11-07T04:42:23Z,166.148.81.45,# 17.0936,  4.31529,    1.992, 0.1841, 0.0000, 0.0003, 0.0001,  33.4025, 07 Nov 2020 04:42:17,  24.2664, 13.8, 186.7
2020-11-07T04:46:23Z,166.148.81.45,# 17.0876,  4.31476,    2.148, 0.1780, 0.0000, 0.0002, 0.0001,  33.4028, 07 Nov 2020 04:46:17,  24.2681, 13.8, 186.6
2020-11-07T04:50:23Z,166.148.81.45,# 17.0616,  4.31234,    2.047, 0.1854, 0.0000, 0.0002, 0.0001,  33.4036, 07 Nov 2020 04:50:17,  24.2748, 13.8, 181.2
2020-11-07T04:54:23Z,166.148.81.45,# 17.0548,  4.31170,    2.172, 0.1881, 0.0000, 0.0001, 0.0001,  33.4035, 07 Nov 2020 04:54:17,  24.2764, 13.8, 182.5
2020-11-07T04:58:23Z,166.148.81.45,# 17.0420,  4.31055,    2.245, 0.1875, 0.0000, 0.0003, 0.0000,  33.4042, 07 Nov 2020 04:58:17,  24.2799, 13.8, 182.8
2020-11-07T05:02:23Z,166.148.81.45,# 17.0321,  4.30958,    2.049, 0.1901, 0.0000, 0.0002, 0.0001,  33.4040, 07 Nov 2020 05:02:17,  24.2821, 13.8, 184.1
2020-11-07T05:06:23Z,166.148.81.45,# 17.0235,  4.30881,    2.077, 0.1940, 0.0000, 0.0002, 0.0001,  33.4045, 07 Nov 2020 05:06:17,  24.2845, 13.8, 182.0
2020-11-07T05:10:23Z,166.148.81.45,# 17.0202,  4.30847,    2.170, 0.1901, 0.0000, 0.0002, 0.0001,  33.4043, 07 Nov 2020 05:10:17,  24.2850, 13.8, 183.0
2020-11-07T05:14:23Z,166.148.81.45,# 17.0374,  4.31005,    2.190, 0.1964, 0.0000, 0.0002, 0.0001,  33.4036, 07 Nov 2020 05:14:17,  24.2805, 13.8, 184.0
2020-11-07T05:18:23Z,166.148.81.45,# 17.0532,  4.31143,    2.097, 0.1940, 0.0000, 0.0003, 0.0000,  33.4026, 07 Nov 2020 05:18:17,  24.2760, 13.8, 185.0
2020-11-07T05:22:23Z,166.148.81.45,# 17.0450,  4.31067,    2.130, 0.1878, 0.0000, 0.0002, 0.0001,  33.4028, 07 Nov 2020 05:22:17,  24.2781, 13.8, 186.1
2020-11-07T05:26:23Z,166.148.81.45,# 17.0488,  4.31102,    2.151, 0.1876, 0.0000, 0.0002, 0.0001,  33.4027, 07 Nov 2020 05:26:17,  24.2771, 13.8, 188.6
2020-11-07T05:30:23Z,166.148.81.45,# 17.0615,  4.31218,    2.075, 0.1959, 0.0000, 0.0002, 0.0001,  33.4022, 07 Nov 2020 05:30:17,  24.2737, 13.8, 190.5
2020-11-07T05:34:23Z,166.148.81.45,# 17.0597,  4.31204,    2.120, 0.1938, 0.0000, 0.0001, 0.0001,  33.4025, 07 Nov 2020 05:34:17,  24.2744, 13.8, 185.2
2020-11-07T05:38:23Z,166.148.81.45,# 17.0558,  4.31168,    2.260, 0.1822, 0.0000, 0.0002, 0.0000,  33.4025, 07 Nov 2020 05:38:17,  24.2754, 13.8, 180.9
2020-11-07T05:42:23Z,166.148.81.45,# 17.0513,  4.31125,    2.108, 0.1921, 0.0000, 0.0002, 0.0001,  33.4027, 07 Nov 2020 05:42:17,  24.2765, 13.8, 188.6
2020-11-07T05:46:23Z,166.148.81.45,# 17.0443,  4.31056,    2.055, 0.1896, 0.0000, 0.0002, 0.0001,  33.4025, 07 Nov 2020 05:46:17,  24.2780, 13.8, 186.7
2020-11-07T05:50:23Z,166.148.81.45,# 17.0432,  4.31048,    2.204, 0.1882, 0.0000, 0.0003, 0.0000,  33.4027, 07 Nov 2020 05:50:17,  24.2784, 13.8, 186.6
2020-11-07T05:54:23Z,166.148.81.45,# 17.0421,  4.31036,    2.176, 0.1918, 0.0000, 0.0002, 0.0000,  33.4025, 07 Nov 2020 05:54:17,  24.2786, 13.8, 183.6
2020-11-07T05:58:23Z,166.148.81.45,# 17.0224,  4.30859,    2.146, 0.1922, 0.0000, 0.0002, 0.0001,  33.4035, 07 Nov 2020 05:58:17,  24.2839, 13.8, 186.6
2020-11-07T06:02:23Z,166.148.81.45,# 17.0246,  4.30876,    2.067, 0.1915, 0.0000, 0.0002, 0.0001,  33.4032, 07 Nov 2020 06:02:17,  24.2832, 13.8, 186.7
2020-11-07T06:06:23Z,166.148.81.45,# 17.0192,  4.30825,    2.163, 0.1893, 0.0000, 0.0002, 0.0001,  33.4032, 07 Nov 2020 06:06:17,  24.2844, 13.8, 188.7
2020-11-07T06:10:23Z,166.148.81.45,# 17.0073,  4.30715,    2.141, 0.1902, 0.0000, 0.0003, 0.0001,  33.4036, 07 Nov 2020 06:10:17,  24.2876, 13.8, 186.3
2020-11-07T06:14:23Z,166.148.81.45,# 17.0029,  4.30676,    2.221, 0.1871, 0.0000, 0.0002, 0.0001,  33.4038, 07 Nov 2020 06:14:17,  24.2888, 13.8, 184.5
2020-11-07T06:18:23Z,166.148.81.45,# 16.9961,  4.30608,    2.298, 0.1864, 0.0000, 0.0002, 0.0001,  33.4035, 07 Nov 2020 06:18:17,  24.2902, 13.8, 184.8
2020-11-07T06:22:23Z,166.148.81.45,# 17.0000,  4.30642,    2.196, 0.1902, 0.0000, 0.0003, 0.0001,  33.4032, 07 Nov 2020 06:22:17,  24.2891, 13.8, 182.8
2020-11-07T06:26:23Z,166.148.81.45,# 16.9986,  4.30630,    2.116, 0.1877, 0.0000, 0.0003, 0.0001,  33.4034, 07 Nov 2020 06:26:17,  24.2894, 13.8, 187.6
2020-11-07T06:30:23Z,166.148.81.45,# 16.9929,  4.30577,    2.186, 0.1863, 0.0000, 0.0002, 0.0001,  33.4036, 07 Nov 2020 06:30:17,  24.2909, 13.8, 184.7
2020-11-07T06:34:23Z,166.148.81.45,# 16.9874,  4.30531,    2.301, 0.1844, 0.0000, 0.0003, 0.0001,  33.4041, 07 Nov 2020 06:34:17,  24.2926, 13.8, 181.2
2020-11-07T06:38:23Z,166.148.81.45,# 16.9806,  4.30464,    2.340, 0.1883, 0.0000, 0.0003, 0.0001,  33.4039, 07 Nov 2020 06:38:17,  24.2941, 13.8, 183.9
2020-11-07T06:42:23Z,166.148.81.45,# 16.9738,  4.30401,    2.214, 0.1865, 0.0000, 0.0002, 0.0001,  33.4042, 07 Nov 2020 06:42:17,  24.2959, 13.8, 187.9
2020-11-07T06:46:23Z,166.148.81.45,# 16.9679,  4.30349,    2.267, 0.1840, 0.0000, 0.0002, 0.0001,  33.4045, 07 Nov 2020 06:46:17,  24.2975, 13.8, 186.3
2020-11-07T06:50:23Z,166.148.81.45,# 16.9614,  4.30286,    2.316, 0.1845, 0.0000, 0.0002, 0.0001,  33.4044, 07 Nov 2020 06:50:17,  24.2989, 13.8, 186.5
2020-11-07T06:54:23Z,166.148.81.45,# 16.9457,  4.30144,    2.341, 0.1902, 0.0000, 0.0003, 0.0001,  33.4051, 07 Nov 2020 06:54:17,  24.3032, 13.8, 186.5
2020-11-07T06:58:23Z,166.148.81.45,# 16.9461,  4.30150,    2.359, 0.1847, 0.0000, 0.0003, 0.0001,  33.4053, 07 Nov 2020 06:58:17,  24.3032, 13.8, 186.9
2020-11-07T07:02:23Z,166.148.81.45,# 16.9407,  4.30095,    2.404, 0.1820, 0.0000, 0.0002, 0.0001,  33.4050, 07 Nov 2020 07:02:17,  24.3043, 13.8, 187.3
2020-11-07T07:06:23Z,166.148.81.45,# 16.9351,  4.30041,    2.437, 0.1784, 0.0000, 0.0002, 0.0001,  33.4049, 07 Nov 2020 07:06:17,  24.3055, 13.8, 185.5
2020-11-07T07:10:23Z,166.148.81.45,# 16.9341,  4.30031,    2.433, 0.1833, 0.0000, 0.0003, 0.0000,  33.4049, 07 Nov 2020 07:10:17,  24.3058, 13.8, 185.7
2020-11-07T07:14:23Z,166.148.81.45,# 16.9288,  4.29984,    2.350, 0.1785, 0.0000, 0.0002, 0.0001,  33.4052, 07 Nov 2020 07:14:17,  24.3073, 13.8, 188.4
2020-11-07T07:18:23Z,166.148.81.45,# 16.9116,  4.29823,    2.239, 0.1886, 0.0000, 0.0003, 0.0000,  33.4056, 07 Nov 2020 07:18:17,  24.3116, 13.8, 189.6
2020-11-07T07:22:23Z,166.148.81.45,# 16.9134,  4.29840,    2.225, 0.1847, 0.0000, 0.0003, 0.0001,  33.4056, 07 Nov 2020 07:22:17,  24.3112, 13.8, 184.5
2020-11-07T07:26:23Z,166.148.81.45,# 16.9081,  4.29794,    2.433, 0.1824, 0.0000, 0.0003, 0.0001,  33.4060, 07 Nov 2020 07:26:17,  24.3127, 13.8, 186.5
2020-11-07T07:30:23Z,166.148.81.45,# 16.9009,  4.29724,    2.556, 0.1786, 0.0000, 0.0002, 0.0001,  33.4058, 07 Nov 2020 07:30:17,  24.3142, 13.8, 188.4
2020-11-07T07:34:23Z,166.148.81.45,# 16.8853,  4.29575,    2.363, 0.1867, 0.0000, 0.0003, 0.0000,  33.4059, 07 Nov 2020 07:34:17,  24.3180, 13.8, 184.9
2020-11-07T07:38:23Z,166.148.81.45,# 16.8802,  4.29538,    2.528, 0.1791, 0.0000, 0.0003, 0.0000,  33.4068, 07 Nov 2020 07:38:17,  24.3198, 13.8, 181.2
2020-11-07T07:42:23Z,166.148.81.45,# 16.8763,  4.29499,    2.582, 0.1759, 0.0000, 0.0003, 0.0001,  33.4067, 07 Nov 2020 07:42:17,  24.3207, 13.8, 184.1
2020-11-07T07:46:23Z,166.148.81.45,# 16.8703,  4.29432,    2.456, 0.1873, 0.0000, 0.0002, 0.0000,  33.4059, 07 Nov 2020 07:46:17,  24.3214, 13.8, 185.7
2020-11-07T07:50:23Z,166.148.81.45,# 16.8626,  4.29361,    2.474, 0.1840, 0.0000, 0.0002, 0.0001,  33.4061, 07 Nov 2020 07:50:17,  24.3234, 13.8, 187.1
2020-11-07T07:54:23Z,166.148.81.45,# 16.8665,  4.29396,    2.544, 0.1790, 0.0000, 0.0002, 0.0001,  33.4059, 07 Nov 2020 07:54:17,  24.3223, 13.8, 186.0
2020-11-07T07:58:23Z,166.148.81.45,# 16.8604,  4.29347,    2.544, 0.1740, 0.0000, 0.0002, 0.0001,  33.4067, 07 Nov 2020 07:58:17,  24.3243, 13.8, 185.2
2020-11-07T08:02:23Z,166.148.81.45,# 16.8454,  4.29199,    2.407, 0.1805, 0.0000, 0.0003, 0.0001,  33.4063, 07 Nov 2020 08:02:17,  24.3276, 13.8, 186.2
2020-11-07T08:06:23Z,166.148.81.45,# 16.8474,  4.29220,    2.471, 0.1754, 0.0000, 0.0001, 0.0000,  33.4064, 07 Nov 2020 08:06:17,  24.3273, 13.8, 186.8
2020-11-07T08:10:23Z,166.148.81.45,# 16.8490,  4.29238,    2.574, 0.1670, 0.0000, 0.0002, 0.0001,  33.4067, 07 Nov 2020 08:10:17,  24.3270, 13.8, 182.2
2020-11-07T08:14:23Z,166.148.81.45,# 16.8340,  4.29098,    2.523, 0.1675, 0.0000, 0.0001, 0.0002,  33.4071, 07 Nov 2020 08:14:17,  24.3308, 13.8, 185.8
2020-11-07T08:18:24Z,166.148.81.45,# 16.8155,  4.28930,    2.520, 0.1673, 0.0000, 0.0001, 0.0001,  33.4078, 07 Nov 2020 08:18:17,  24.3357, 13.8, 183.5
2020-11-07T08:22:23Z,166.148.81.45,# 16.8244,  4.29008,    2.610, 0.1626, 0.0000, 0.0003, 0.0001,  33.4072, 07 Nov 2020 08:22:17,  24.3333, 13.8, 186.0
2020-11-07T08:26:23Z,166.148.81.45,# 16.8348,  4.29116,    2.605, 0.1609, 0.0000, 0.0002, 0.0001,  33.4079, 07 Nov 2020 08:26:17,  24.3313, 13.8, 183.9
2020-11-07T08:30:23Z,166.148.81.45,# 16.7997,  4.28786,    2.495, 0.1627, 0.0000, 0.0003, 0.0001,  33.4085, 07 Nov 2020 08:30:17,  24.3400, 13.8, 186.7
2020-11-07T08:34:23Z,166.148.81.45,# 16.7982,  4.28777,    2.649, 0.1604, 0.0000, 0.0001, 0.0001,  33.4089, 07 Nov 2020 08:34:17,  24.3406, 13.8, 185.4
2020-11-07T08:38:23Z,166.148.81.45,# 16.8097,  4.28880,    2.611, 0.1556, 0.0000, 0.0002, 0.0001,  33.4082, 07 Nov 2020 08:38:17,  24.3374, 13.8, 185.2
2020-11-07T08:42:23Z,166.148.81.45,# 16.8101,  4.28889,    2.663, 0.1563, 0.0000, 0.0002, 0.0001,  33.4086, 07 Nov 2020 08:42:17,  24.3376, 13.8, 179.5
2020-11-07T08:46:23Z,166.148.81.45,# 16.8076,  4.28860,    2.544, 0.1553, 0.0000, 0.0002, 0.0001,  33.4082, 07 Nov 2020 08:46:17,  24.3379, 13.8, 184.2
2020-11-07T08:50:23Z,166.148.81.45,# 16.7686,  4.28452,    2.620, 0.1497, 0.0000, 0.0001, 0.0001,  33.4051, 07 Nov 2020 08:50:17,  24.3446, 13.8, 186.8
2020-11-07T08:54:23Z,166.148.81.45,# 16.7547,  4.28289,    2.715, 0.1512, 0.0000, 0.0001, 0.0001,  33.4025, 07 Nov 2020 08:54:17,  24.3458, 13.8, 187.3
2020-11-07T08:58:23Z,166.148.81.45,# 16.7451,  4.28233,    2.721, 0.1522, 0.0000, 0.0002, 0.0001,  33.4056, 07 Nov 2020 08:58:17,  24.3505, 13.8, 184.3
2020-11-07T09:02:23Z,166.148.81.45,# 16.6505,  4.27315,    2.777, 0.1622, 0.0000, 0.0001, 0.0001,  33.4044, 07 Nov 2020 09:02:17,  24.3716, 13.8, 186.8
2020-11-07T09:06:23Z,166.148.81.45,# 16.6573,  4.27300,    2.829, 0.1603, 0.0000, 0.0001, 0.0001,  33.3973, 07 Nov 2020 09:06:17,  24.3645, 13.8, 187.2
2020-11-07T09:10:23Z,166.148.81.45,# 16.6668,  4.27438,    2.720, 0.1507, 0.0000, 0.0001, 0.0001,  33.4016, 07 Nov 2020 09:10:17,  24.3656, 13.8, 182.9
2020-11-07T09:14:23Z,166.148.81.45,# 16.6055,  4.26777,    2.749, 0.1640, 0.0000, 0.0001, 0.0001,  33.3949, 07 Nov 2020 09:14:17,  24.3746, 13.8, 187.6
2020-11-07T09:18:23Z,166.148.81.45,# 16.4888,  4.25609,    2.755, 0.1701, 0.0000, 0.0003, 0.0001,  33.3901, 07 Nov 2020 09:18:17,  24.3979, 13.8, 189.1
2020-11-07T09:22:23Z,166.148.81.45,# 16.5493,  4.26348,    2.803, 0.1602, 0.0000, 0.0001, 0.0001,  33.4042, 07 Nov 2020 09:22:17,  24.3948, 13.8, 185.5
2020-11-07T09:26:23Z,166.148.81.45,# 16.4959,  4.25730,    2.713, 0.1670, 0.0000, 0.0001, 0.0002,  33.3948, 07 Nov 2020 09:26:17,  24.3999, 13.8, 186.9
2020-11-07T09:30:23Z,166.148.81.45,# 16.5333,  4.26089,    2.749, 0.1561, 0.0000, 0.0001, 0.0000,  33.3950, 07 Nov 2020 09:30:17,  24.3915, 13.8, 183.9
2020-11-07T09:34:23Z,166.148.81.45,# 16.4391,  4.25184,    2.796, 0.1652, 0.0000, 0.0001, 0.0001,  33.3945, 07 Nov 2020 09:34:17,  24.4127, 13.8, 183.3
2020-11-07T09:38:23Z,166.148.81.45,# 16.3995,  4.24799,    2.776, 0.1640, 0.0000, 0.0001, 0.0001,  33.3938, 07 Nov 2020 09:38:17,  24.4213, 13.8, 184.7
2020-11-07T09:42:23Z,166.148.81.45,# 16.3958,  4.24727,    2.886, 0.1649, 0.0000, 0.0001, 0.0001,  33.3905, 07 Nov 2020 09:42:17,  24.4197, 13.8, 185.1
2020-11-07T09:46:23Z,166.148.81.45,# 16.3666,  4.24315,    2.948, 0.1634, 0.0000, 0.0001, 0.0001,  33.3787, 07 Nov 2020 09:46:17,  24.4172, 13.8, 182.7
2020-11-07T09:50:23Z,166.148.81.45,# 16.3958,  4.24752,    2.852, 0.1592, 0.0000, 0.0002, 0.0002,  33.3927, 07 Nov 2020 09:50:17,  24.4213, 13.8, 185.6
2020-11-07T09:54:23Z,166.148.81.45,# 16.3125,  4.23847,    2.825, 0.1662, 0.0000, 0.0001, 0.0000,  33.3829, 07 Nov 2020 09:54:17,  24.4330, 13.8, 184.9
2020-11-07T09:58:23Z,166.148.81.45,# 16.2054,  4.22838,    2.883, 0.1796, 0.0000, 0.0001, 0.0001,  33.3838, 07 Nov 2020 09:58:17,  24.4581, 13.8, 182.7
2020-11-07T10:02:23Z,166.148.81.45,# 16.2817,  4.23688,    2.853, 0.1654, 0.0000, 0.0002, 0.0001,  33.3948, 07 Nov 2020 10:02:17,  24.4491, 13.8, 188.1
2020-11-07T10:06:23Z,166.148.81.45,# 16.3086,  4.23892,    2.875, 0.1620, 0.0000, 0.0001, 0.0002,  33.3901, 07 Nov 2020 10:06:17,  24.4393, 13.8, 183.2
2020-11-07T10:10:23Z,166.148.81.45,# 16.1746,  4.22595,    2.858, 0.1719, 0.0000, 0.0002, 0.0001,  33.3883, 07 Nov 2020 10:10:17,  24.4685, 13.8, 180.9
2020-11-07T10:14:23Z,166.148.81.45,# 16.1868,  4.22785,    2.903, 0.1693, 0.0000, 0.0001, 0.0001,  33.3948, 07 Nov 2020 10:14:17,  24.4707, 13.8, 188.1
2020-11-07T10:18:23Z,166.148.81.45,# 16.3031,  4.23819,    2.707, 0.1553, 0.0000, 0.0002, 0.0001,  33.3884, 07 Nov 2020 10:18:17,  24.4392, 13.8, 185.3
2020-11-07T10:22:23Z,166.148.81.45,# 16.2265,  4.23107,    2.857, 0.1644, 0.0000, 0.0002, 0.0001,  33.3899, 07 Nov 2020 10:22:17,  24.4579, 13.8, 186.4
2020-11-07T10:26:23Z,166.148.81.45,# 16.1452,  4.22254,    2.932, 0.1676, 0.0000, 0.0001, 0.0001,  33.3829, 07 Nov 2020 10:26:17,  24.4711, 13.8, 184.4